Location: Mentone
(34.5413°N, 85.5351°W)
Time: 17:02:47
(UTC-05:00)

AO-Echo - Visible Passes

Search period start: 03 July 2015 00:00
Search period end: 13 July 2015 00:00
Orbit: 695 x 811 km, 98.3° (Epoch: 03 July)

Date Brightness Start Highest point End Pass type
(mag) Time Alt. Az. Time Alt. Az. Time Alt. Az.
03 Jul ? 02:09:19 10° NNE 02:14:20 52° E 02:14:20 52° E visible
03 Jul ? 03:49:24 10° NNW 03:52:49 17° WNW 03:54:16 15° W visible
04 Jul ? 01:30:05 10° NE 01:33:29 20° E 01:33:29 20° E visible
04 Jul ? 03:07:52 10° N 03:12:49 40° WNW 03:13:26 39° W visible
05 Jul ? 02:27:19 10° NNE 02:32:35 80° E 02:32:35 80° E visible
05 Jul ? 04:09:07 10° NW 04:10:44 11° WNW 04:12:01 10° WNW visible
06 Jul ? 01:47:33 10° NE 01:51:44 30° E 01:51:44 30° E visible
06 Jul ? 03:26:23 10° NNW 03:30:48 27° WNW 03:31:41 26° W visible
07 Jul ? 01:09:46 10° ENE 01:10:53 11° E 01:10:53 11° E visible
07 Jul ? 02:45:28 10° N 02:50:43 68° WNW 02:50:50 67° W visible
08 Jul ? 02:05:20 10° NNE 02:09:59 46° E 02:09:59 46° E visible
08 Jul ? 03:45:11 10° NNW 03:48:46 18° WNW 03:49:55 17° W visible
09 Jul ? 01:26:16 10° NE 01:29:07 18° E 01:29:07 18° E visible
09 Jul ? 03:03:46 10° N 03:08:44 44° WNW 03:09:04 43° W visible
10 Jul ? 02:23:17 10° NNE 02:28:12 71° ENE 02:28:12 71° ENE visible
10 Jul ? 04:04:38 10° NW 04:06:41 12° WNW 04:08:09 10° W visible
11 Jul ? 01:43:38 10° NE 01:47:21 27° E 01:47:21 27° E visible
11 Jul ? 03:22:16 10° N 03:26:44 29° WNW 03:27:17 28° W visible
12 Jul ? 02:41:24 10° N 02:46:25 73° NW 02:46:25 73° NW visible
